Location: Buena Vista
(37.7110°N, 119.7938°W)
Time: 22:25:19
(UTC+00:00)

Envisat - Pass Details

Date: 18 August 2024
Orbit: 762 x 764 km, 98.3° (Epoch: 08 September)

Event Time Altitude Azimuth Distance (km) Brightness Sun altitude
Rises 10:09:48 0° 28° (NNE) 3,231 7.4 -31.3°
Reaches altitude 10° 10:12:36 10° 43° (NE) 2,301 6.4 -31.0°
Maximum altitude 10:16:32 22° 94° (E) 1,603 4.9 -30.5°
Enters shadow 10:17:45 21° 115° (ESE) 1,682 4.8 -30.4°
